Regional Weather Roundup
Issued by NWS Huntsville, AL

Home | Current Version | Previous Version | Text Only | Print | Product List | Glossary On
Versions: 1 2 3 4 5 6 7 8 9 10 11 12 13 14 15 16 17 18 19 20 21 22 23 24 25 26 27 28 29 30 31 32 33 34 35 36 37 38 39 40 41 42 43 44 45 46 47 48 49 50
000
ASUS44 KHUN 300910
RWRHUN

WEATHER ROUNDUP FOR THE TENNESSEE VALLEY
NATIONAL WEATHER SERVICE HUNTSVILLE AL
400 AM CDT TUE JUN 30 2015

ALZ001>004-301000-
NORTHWEST ALABAMA

CITY           SKY/WX    TMP DP  RH WIND       PRES   REMARKS
COURTLAND HCN    N/A     75 N/A N/A CALM        N/A
RUSSELLVILLE     N/A     73 N/A N/A MISG        N/A
SHOALS AIRPORT MOCLDY    73  70  90 SW7       29.95R
SHOALS TVA RES   N/A     72 N/A N/A MISG        N/A
$$

ALZ005>007-016-301000-
NORTH CENTRAL ALABAMA

CITY           SKY/WX    TMP DP  RH WIND       PRES   REMARKS
CULLMAN AG STN   N/A     72 N/A N/A SW3         N/A
DECATUR AP     PTCLDY    75  67  76 SW13      29.93F
HUNTSVILLE AP  LGT RAIN  75  68  78 SW13      29.92F
HUN NWS/UAH      N/A     74  65  73 SW9         N/A
MERIDIANVILLE  MOCLDY    73  63  68 S7        29.92F
REDSTONE ARSN  PTCLDY    73  68  82 SW8       29.92F
VINEMONT AP    FAIR      71  67  88 S3        29.99S
$$

ALZ008>010-301000-
NORTHEAST ALABAMA

CITY           SKY/WX    TMP DP  RH WIND       PRES   REMARKS
ALBERTVILLE    PTCLDY    72  72 100 SW5       29.97S
FORT PAYNE     PTCLDY    64  61  88 CALM      29.96F
SCOTTSBORO AP  PTCLDY    73  66  78 SW6       29.95R
VALLEY HEAD      N/A     66 N/A N/A MISG        N/A
$$

TNZ076-096-097-301000-
SOUTHEASTERN MIDDLE TENNESSEE

CITY           SKY/WX    TMP DP  RH WIND       PRES   REMARKS
TULLAHOMA      CLOUDY    72  64  78 SW5       29.95R
WINCHESTER     CLOUDY    77  66  69 W10       29.94R
$$

...SURROUNDING SITES...

CITY           SKY/WX    TMP DP  RH WIND       PRES   REMARKS
ATLANTA        MOCLDY    73  66  78 SW8       30.00F
ANNISTON       CLOUDY    70  65  84 CALM      29.99F
BIRMINGHAM     PTCLDY    76  72  87 SW6       30.00F
CHATTANOOGA    PTCLDY    74  63  68 S7        29.94F
CORINTH        FAIR      73  70  88 S5        29.92S
DALTON         CLEAR     70  64  83 CALM      29.96F
GADSDEN        PTCLDY   N/A N/A N/A CALM      29.96S
GOLDEN TRNGL   MOCLDY    75  68  78 SW7       29.95S
HALEYVILLE     FAIR      73  69  87 S7        29.99S
JACKSON TN     PTCLDY    72  66  81 SW8       29.90R
MEMPHIS        MOCLDY    71  65  81 S6        29.91S
NASHVILLE      PTCLDY    70  70 100 CALM      29.89F
OXFORD MS      FAIR      68  63  83 SW7       29.96F
ROME           CLEAR     70  64  81 S5        29.96F
SAVANNAH       CLEAR     72  32  23 CALM      29.92S
TUPELO         CLOUDY    75  71  87 SW3       29.94R
TUSCALOOSA     PTCLDY    74  71  91 S3        29.98S
$$

...GULF COAST WEATHER...

CITY           SKY/WX    TMP DP  RH WIND       PRES   REMARKS
GULFPORT       PTCLDY    79  75  87 CALM      30.02S
PASCAGOULA     PTCLDY    80  76  87 SW5       30.03S
MOBILE         PTCLDY    77  76  96 SW7       30.04S
GULF SHORES    PTSUNNY   80  77  90 SW8       30.04S
PENSACOLA      MOCLDY    80  75  84 SW7       30.03S
DESTIN         PTCLDY    82  77  84 W6        30.03S HX  90
PANAMA CITY    CLEAR     82  76  82 W13       30.04F
APPALACHICOLA  CLEAR     83  76  79 W9        30.05F HX  91
$$



USA.gov is the U.S. government's official web portal to all federal, state and local government web resources and services.